Air Resources Laboratory banner image
Air Resources Laboratory web site National Oceanic and Atmospheric Administration (NOAA)

sc roundup


Office: CAE

ASUS42 KCAE 131310
RWRCAE
REGIONAL WEATHER ROUNDUP
NATIONAL WEATHER SERVICE COLUMBIA SC
800 AM EST WED DEC 13 2017

NOTE: "FAIR" INDICATES FEW OR NO CLOUDS BELOW 12,000 FEET WITH NO
SIGNIFICANT WEATHER AND/OR OBSTRUCTIONS TO VISIBILITY.

NOT ALL STATIONS ARE QUALITY CONTROLLED BY THE NATIONAL
WEATHER SERVICE. USE DATA WITH CAUTION...ESPECIALLY
DEWPOINT OBSERVATIONS.

SCZ001>056-GAZ040-063>065-077-131400-
...UPSTATE SOUTH CAROLINA...

CITY           SKY/WX    TMP DP  RH WIND       PRES   REMARKS
ANDERSON       CLOUDY    29  14  53 SW5       30.00R WCI  24
LIBERTY        CLOUDY    21  17  82 CALM      29.97R
SPARTANBURG    CLEAR     30   3  31 W7        29.98R WCI  23
CLEMSON        CLOUDY    27  10  49 W10       29.99R WCI  17
GREENVILLE     CLOUDY    30   8  39 CALM      29.99R
GREENWOOD      CLOUDY    27  12  53 SW6       30.02R WCI  20
GREER          CLOUDY    27   6  41 N7        29.99R WCI  19
ROCK HILL        N/A     21  12  68 SW6       29.99  WCI  13
CHESTER        SUNNY     27  10  50 CALM      30.01R
LAURENS        CLOUDY    27  19  74 W3        30.00R


...CENTRAL SOUTH CAROLINA...

CITY           SKY/WX    TMP DP  RH WIND       PRES   REMARKS
COLUMBIA APT   CLEAR     30  23  75 W7        30.04R WCI  23
COLUMBIA OWENS CLEAR     30  24  78 CALM      30.05R
MCENTIRE ANGB  CLEAR     26  21  83 CALM      30.04R
ORANGEBURG     CLEAR     32  20  61 NW3       30.05R
SUMTER SHAW    CLEAR     32  10  40 NW9       30.01R WCI  24
NEWBERRY       SUNNY     27  21  80 CALM      30.05R
AIKEN          FAIR      28  16  59 CALM      30.06R
BARNWELL         N/A     34  18  51 W6        30.05R WCI  29
MANNING        FAIR      28  21  74 MISG      30.05R
CAMDEN         FAIR      27  16  63 CALM      30.03R
LANCASTER      SUNNY     23  14  68 W3        30.01R
WINNSBORO      SUNNY     30  14  51 W3        30.01R


...EASTERN AND COASTAL SOUTH CAROLINA...

CITY           SKY/WX    TMP DP  RH WIND       PRES   REMARKS
MYRTLE BEACH   CLEAR     32  20  61 NW7       30.04R WCI  26
N MYRTLE BCH   PTCLDY    31  18  58 NW6       30.01R WCI  25
CONWAY         FAIR      28  27  93 CALM      30.03R FOG
MARION         FAIR      28  21  74 CALM      30.02R
HARTSVILLE     FAIR      27  19  74 CALM      30.01R
FLORENCE       CLEAR     26  21  81 CALM      30.03R
DARLINGTON     CLEAR     27  24  89 CALM      30.02R
CHARLESTON APT CLEAR     35  24  64 NW7       30.05R WCI  29
MOUNT PLEASANT FAIR      34  28  80 CALM      30.05R
WALTERBORO     SUNNY     32  27  80 NW3       30.07R
BEAUFORT       CLEAR     37  23  56 NW7       30.07R WCI  32


...EASTERN GEORGIA...

CITY           SKY/WX    TMP DP  RH WIND       PRES   REMARKS
AUGUSTA BUSH F CLEAR     29  17  61 CALM      30.06R
AUGUSTA DANIEL CLEAR     33  13  43 W7        30.04R WCI  27
THOMSON        CLEAR     29  12  49 NW5       30.09R WCI  24
WASHINGTON     FAIR      30  12  47 W8        30.03R WCI  23
CLAXTON        FAIR      35  20  55 W5        30.08R WCI  31
SYLVANIA       SUNNY     32  22  67 NW3       30.06S
STATESBORO     CLEAR     35  13  40 W5        30.07R WCI  31
SAVANNAH       CLEAR     36  19  50 NW8       30.08R WCI  30


...SOUTHERN NORTH CAROLINA...

CITY           SKY/WX    TMP DP  RH WIND       PRES   REMARKS
CHARLOTTE      CLEAR     27  10  49 CALM      29.98R
MONROE         CLEAR     26  10  50 W5        29.97R WCI  20
WADESBORO      SUNNY     22  18  83 CALM      30.01R
ASHEVILLE      CLEAR     21   4  47 NW12      29.94R WCI   9

$$




Office: CHS ASUS42 KCHS 131312 RWRCHS REGIONAL WEATHER ROUNDUP NATIONAL WEATHER SERVICE CHARLESTON SC 800 AM EST WED DEC 13 2017 NOTE: "FAIR" INDICATES FEW OR NO CLOUDS BELOW 12,000 FEET WITH NO SIGNIFICANT WEATHER AND/OR OBSTRUCTIONS TO VISIBILITY. NOT ALL STATIONS ARE QUALITY CONTROLLED. USE DATA WITH CAUTION... ESPECIALLY DEWPOINT OBSERVATIONS. SCZ027-030-031-034>040-042>050-131400- ...SOUTHEAST SOUTH CAROLINA... CITY SKY/WX TMP DP RH WIND PRES REMARKS N CHARLESTON CLEAR 35 24 64 NW7 30.05R WCI 29 WATERFRONT PRK N/A 37 25 61 NW6 29.88R WCI 32 JOHNS ISLAND FAIR 36 27 69 W7 30.05R WCI 30 PINOPOLIS N/A 39 18 41 N15 29.95R WCI 31 MONCKS CORNER FAIR 32 23 69 CALM 30.05R SUMMERVILLE FAIR 32 25 74 W3 30.07R BEAUFORT MCAS CLEAR 37 23 56 NW7 30.07R WCI 32 BEAUFORT ARPT FAIR 36 23 60 NW10 30.06R HAZE WCI 28 HILTON HEAD IS CLEAR 37 19 48 N14 30.07R WCI 29 WALTERBORO SUNNY 32 27 80 NW3 30.07R ALLENDALE FAIR 34 18 51 VRB3 30.05R ...SOUTHERN MIDLANDS AND PEE DEE... CITY SKY/WX TMP DP RH WIND PRES REMARKS GEORGETOWN FAIR 32 23 69 CALM 30.05R KINGSTREE FAIR 28 23 80 CALM 30.04R ORANGEBURG CLEAR 32 20 61 NW3 30.05R BARNWELL N/A 34 18 51 W6 30.05R WCI 29 AIKEN FAIR 28 16 59 CALM 30.06R MANNING FAIR 28 21 74 MISG 30.05R COLUMBIA CLEAR 30 23 75 W7 30.04R WCI 23 SUMTER CLEAR 32 10 40 NW9 30.01R WCI 24 FLORENCE CLEAR 26 21 81 CALM 30.03R MYRTLE BEACH CLEAR 32 20 61 NW7 30.04R WCI 26 N MYRTLE BEACH PTCLDY 31 18 58 NW6 30.01R WCI 25 $$ GAZ063-065-086>088-099>101-113>116-118-119-134>141-150-131400- ...SOUTHEAST GEORGIA... CITY SKY/WX TMP DP RH WIND PRES REMARKS SAVANNAH ARPT CLEAR 36 19 50 NW8 30.08R WCI 30 HUNTER AAF CLEAR 36 19 49 NW9 30.06R WCI 29 FORT STEWART CLEAR 37 17 44 NW7 30.06R WCI 32 STATESBORO CLEAR 35 13 40 W5 30.07R WCI 31 SYLVANIA SUNNY 32 22 67 NW3 30.06S CLAXTON FAIR 35 20 55 W5 30.08R WCI 31 ...CSRA...CENTRAL AND FAR SOUTHEAST GEORGIA... CITY SKY/WX TMP DP RH WIND PRES REMARKS THOMSON CLEAR 29 12 49 NW5 30.09R WCI 24 AUGUSTA-BUSH CLEAR 29 17 61 CALM 30.06R AUGUSTA-DANIEL CLEAR 33 13 43 W7 30.04R WCI 27 SWAINSBORO FAIR 32 18 55 W7 30.06S WCI 26 VIDALIA CLEAR 36 23 60 W3 30.08R EASTMAN FAIR 34 11 38 NW3 30.12R HAZLEHURST FAIR 36 11 36 CALM 30.09R ALMA PTCLDY 37 20 50 NW10 30.08R WCI 30 WAYCROSS PTCLDY 38 21 51 NW7 30.10R WCI 32 JESUP FAIR 39 23 52 CALM 30.09 BAXLEY FAIR 34 21 60 NW3 30.09R BRUNSWICK CLEAR 36 28 75 W5 30.09R WCI 32 SAINT SIMONS PTCLDY 40 28 62 NW6 30.08R WCI 36 $$ SCZ027-028-034-036>038-045-046-048>050-GAZ119-141-131400- ...LAKE AND SUPPLEMENTAL COASTAL OBSERVATIONS... STATION/POSITION TIME TEMP WIND PRES WAVE SWELL AIR SEA DIR/SP/G HT/PER HT/PER/DIR (UTC) (F) (DEG/KT/KT) (MB) (FT/S) (FT/S/D) WINYAH BAY 1145 33 330/ 3 1016.0 LAKE MURRAY 1220 33 280/ 4/ 7 1015.9 ACE BASIN NERRS 1145 35 290/ 2 1017.0 FORT PULASKI 1242 38 54 320/ 12/ 14 1018.4R SAPELO ISLAND NOT AVBL $$ ANZ835-935-AMZ111-154-330-350-352-354-370-450-454-472-131400- ...C-MAN AND BUOY OBSERVATIONS... STATION/POSITION TIME TEMP WIND PRES WAVE SWELL AIR SEA DIR/SP/G HT/PER HT/PER/DIR (UTC) (F) (DEG/KT/KT) (MB) (FT/S) (FT/S/D) BUOY 41004 1250 45 73 330/ 17/ 25 1016.3R 6/ 6 BUOY 41008 1250 44 59 330/ 17/ 23 1017.8R 4/ 5 FOLLY BEACH CMAN 1200 37 300/ 6/ 10 1016.8R CAPERS NEARSHORE NOT AVBL FRIPP NEARSHORE 1208 38 56 310/ 25/ 35 1016.5R STATION/POSITION TIME TEMP WIND PRES WAVE SWELL AIR SEA DIR/SP/G HT/PER HT/PER/DIR (UTC) (F) (DEG/KT/KT) (MB) (FT/S) (FT/S/D) 5E ST. MARYS GA 1230 62 N/A 3/ 4 FRYING PAN BUOY 1250 41 62 340/ 21/ 27 1015.0R 6/ 5 2/200/ 9 BUOY 41025 1250 37 74 300/ 25/ 33 1013.2R 7/ 6 2/200/ 9 CAPE LOOKOUT NC 1200 320/ 19/ 23 1014.4R BUOY 41002 1150 58 75 320/ 27/ 33 1010.6 13/10 8/290/10 BUOY 41010 NOT AVBL ST AUGUSTINE FL 1300 44 61 290/ 5/ 7 1019.8R $$